AB9HP Weather Reports


Display with metric or nautical units.
time (UTC)temp
F
wind
direction
speed
MPH
gust
MPH
rain 1hr
in
rain 24hr
in
rain mn
in
humidity
%
barometer
mb
20260903083020 79 215 1.0 8.0 0.00 0.00 0.00 82 1014.1
20260903081536 79 233 2.0 7.0 0.00 0.00 0.00 82 1014.2
20260903080016 79 217 2.0 8.0 0.00 0.00 0.00 82 1014.1
20260903074514 79 225 3.0 8.0 0.00 0.00 0.00 82 1014.1
20260903073015 79 188 3.0 7.0 0.00 0.00 0.00 82 1014.0
20260903071513 79 228 5.0 9.0 0.00 0.00 0.00 82 1013.9
20260903070008 79 236 4.0 9.0 0.00 0.00 0.00 83 1014.0
20260903064506 79 208 2.0 10.0 0.00 0.00 0.00 83 1014.1
20260903063004 79 230 4.0 9.0 0.00 0.00 0.00 83 1014.1
20260903061503 79 217 2.0 7.0 0.00 0.00 0.00 83 1014.2
20260903060059 79 223 2.0 6.0 0.00 0.00 0.00 83 1014.2
20260903054555 79 199 1.0 6.0 0.00 0.00 0.00 83 1014.2
20260903053052 80 211 2.0 6.0 0.00 0.00 0.00 83 1014.2
20260903051552 80 205 2.0 5.0 0.00 0.00 0.00 83 1014.1
20260903050047 80 196 1.0 6.0 0.00 0.00 0.00 82 1013.9
20260903044546 80 226 0.0 5.0 0.00 0.00 0.00 82 1014.0
20260903043041 81 201 2.0 5.0 0.00 0.00 0.00 81 1013.7
20260903041536 81 207 3.0 7.0 0.00 0.00 0.00 81 1013.7
20260903040033 81 210 3.0 7.0 0.00 0.00 0.00 81 1013.7
20260903034530 81 183 2.0 5.0 0.00 0.00 0.00 81 1013.8
20260903033028 82 181 2.0 7.0 0.00 0.00 0.00 80 1013.9
20260903031532 83 229 1.0 6.0 0.00 0.00 0.00 79 1014.0
20260903030024 83 217 2.0 7.0 0.00 0.00 0.00 79 1014.0
20260903024522 83 199 1.0 4.0 0.00 0.00 0.00 80 1014.2
20260903023026 83 211 0.0 4.0 0.00 0.00 0.00 80 1014.2
20260903021536 83 225 1.0 6.0 0.00 0.00 0.00 79 1014.1
20260903020018 84 205 1.0 6.0 0.00 0.00 0.00 79 1014.1
20260903014513 84 195 3.0 7.0 0.00 0.00 0.00 78 1013.9
20260903013014 84 178 3.0 7.0 0.00 0.00 0.00 77 1013.8
20260903011509 85 203 3.0 7.0 0.00 0.00 0.00 76 1013.7
20260903010008 86 210 1.0 4.0 0.00 0.00 0.00 76 1013.7
20260903004506 86 219 1.0 7.0 0.00 0.00 0.00 76 1013.5
20260903003005 87 225 3.0 7.0 0.00 0.00 0.00 75 1013.6
20260903001504 88 224 1.0 6.0 0.00 0.00 0.00 74 1013.5
20260903000100 88 223 3.0 8.0 0.00 0.00 0.00 73 1013.6
20260902234600 89 234 1.0 7.0 0.00 0.00 0.00 71 1013.6
20260902233054 90 233 2.0 7.0 0.00 0.00 0.00 69 1013.6
20260902231559 91 229 2.0 8.0 0.00 0.00 0.00 67 1013.6
20260902230054 92 214 1.0 7.0 0.00 0.00 0.00 67 1013.5
20260902224549 92 230 5.0 11.0 0.00 0.00 0.00 65 1013.5
20260902223046 93 256 2.0 11.0 0.00 0.00 0.00 64 1013.6
20260902221553 93 204 5.0 12.0 0.00 0.00 0.00 63 1013.7
20260902220043 94 210 4.0 10.0 0.00 0.00 0.00 62 1013.6
20260902214543 94 243 4.0 11.0 0.00 0.00 0.00 63 1013.5
20260902213043 94 252 7.0 11.0 0.00 0.00 0.00 60 1013.5
20260902211536 94 186 5.0 13.0 0.00 0.00 0.00 60 1013.6
20260902210037 94 214 8.0 13.0 0.00 0.00 0.00 58 1013.6
20260902204529 95 240 2.0 11.0 0.00 0.00 0.00 61 1013.6
20260902203025 94 196 5.0 15.0 0.00 0.00 0.00 60 1013.9
20260902201522 94 205 2.0 14.0 0.00 0.00 0.00 61 1013.9
20260902200021 94 207 6.0 13.0 0.00 0.00 0.00 61 1014.1
20260902194518 94 238 6.0 15.0 0.00 0.00 0.00 60 1014.1
20260902193011 94 151 3.0 12.0 0.00 0.00 0.00 62 1014.4
20260902191513 94 237 5.0 13.0 0.00 0.00 0.00 61 1014.5
20260902190009 93 212 6.0 12.0 0.00 0.00 0.00 62 1014.8
20260902184502 93 240 8.0 14.0 0.00 0.00 0.00 61 1014.8
20260902183113 93 211 8.0 15.0 0.00 0.00 0.00 62 1014.9
20260902181555 92 207 7.0 14.0 0.00 0.00 0.00 62 1015.1
20260902180051 92 217 6.0 11.0 0.00 0.00 0.00 64 1015.1
20260902174556 92 211 8.0 15.0 0.00 0.00 0.00 64 1015.4
20260902173044 91 211 3.0 11.0 0.00 0.00 0.00 66 1015.4
20260902171541 91 260 4.0 11.0 0.00 0.00 0.00 65 1015.6
20260902170037 91 184 6.0 14.0 0.00 0.00 0.00 65 1015.7
20260902164535 90 226 4.0 11.0 0.00 0.00 0.00 66 1016.0
20260902163028 90 233 3.0 15.0 0.00 0.00 0.00 68 1015.8
20260902161523 89 261 6.0 11.0 0.00 0.00 0.00 68 1016.0
20260902160028 88 207 5.0 11.0 0.00 0.00 0.00 70 1016.0
20260902154521 88 278 4.0 10.0 0.00 0.00 0.00 71 1016.1
20260902153014 87 205 2.0 11.0 0.00 0.00 0.00 72 1016.0
20260902151510 86 243 4.0 11.0 0.00 0.00 0.00 73 1016.1
20260902150008 85 225 6.0 12.0 0.00 0.00 0.00 74 1016.1
20260902144501 85 243 3.0 10.0 0.00 0.00 0.00 75 1016.0
20260902143101 84 231 3.0 13.0 0.00 0.00 0.00 76 1016.1
20260902141555 84 210 4.0 10.0 0.00 0.00 0.00 75 1015.9
20260902140053 83 252 4.0 9.0 0.00 0.00 0.00 76 1015.9
20260902134550 82 242 3.0 8.0 0.00 0.00 0.00 77 1016.3
20260902133043 81 237 3.0 9.0 0.00 0.00 0.00 78 1016.4
20260902131540 80 249 2.0 9.0 0.00 0.00 0.00 79 1016.3
20260902130039 79 232 4.0 10.0 0.00 0.00 0.00 80 1016.5
20260902124537 78 236 4.0 9.0 0.00 0.00 0.00 81 1016.3
20260902123033 78 208 3.0 8.0 0.00 0.00 0.00 82 1016.3
20260902121529 77 266 2.0 6.0 0.00 0.00 0.00 83 1016.3
20260902120027 76 197 2.0 9.0 0.00 0.00 0.00 84 1016.4
20260902114542 76 229 1.0 6.0 0.00 0.00 0.00 86 1016.3
20260902113019 75 238 1.0 5.0 0.00 0.00 0.00 87 1016.2
20260902111518 74 231 1.0 4.0 0.00 0.00 0.00 88 1016.1
20260902110013 74 160 0.0 2.0 0.00 0.00 0.00 88 1016.0
20260902104512 75 216 0.0 1.0 0.00 0.00 0.00 88 1015.8
20260902103010 75 214 0.0 2.0 0.00 0.00 0.00 88 1015.6
20260902101506 75 214 1.0 6.0 0.00 0.00 0.00 87 1015.5
20260902100003 75 188 2.0 5.0 0.00 0.00 0.00 87 1015.4
20260902094501 75 216 0.0 3.0 0.00 0.00 0.00 87 1015.3
20260902093113 75 221 1.0 5.0 0.00 0.00 0.00 87 1015.2
20260902091557 76 210 0.0 3.0 0.00 0.00 0.00 87 1015.2
20260902090055 76 189 0.0 1.0 0.00 0.00 0.00 87 1015.3
20260902084555 76 214 0.0 2.0 0.00 0.00 0.00 87 1015.4